Temperature
16 16 16 16 16 16 16 16 16 16 16 16 16 16 17 17 16 16 16 16 16 16 16 16 16 16 16 16 15 16 16 16 16 16 15 15 15 15 15 15 15 15 15
16 16 16 16 16 16 16 16 16 16 16 16 16 16 16 16 16 16 16 16 16 16 16 16 16 16 16 16 16 16 16 16 16 15 15 15 15 15 15 15 15 15 15
16 16 16 16 16 16 16 16 16 16 16 16 16 16 16 16 16 16 16 16 16 16 16 16 16 16 16 16 15 15 16 16 16 15 15 15 15 15 15 15 15 15 15
16 16 16 16 16 16 16 16 16 16 16 16 16 16 16 16 16 16 16 16 16 16 16 16 16 16 15 15 15 15 15 15 15 15 15 15 15 15 15 15 15 15 15
15 15 15 15 16 16 16 16 16 16 16 16 16 16 16 16 16 16 16 16 16 16 16 16 16 16 15 15 15 15 15 15 15 15 15 15 15 15 15 15 15 15 15
15 15 15 15 15 15 15 15 16 16 16 16 16 16 16 16 16 16 16 16 16 16 16 15 15 15 15 15 15 15 15 15 15 15 15 15 15 15 15 15 15 15 15
15 15 15 15 15 15 15 15 15 15 15 16 16 15 15 16 16 16 15 15 15 15 15 15 15 15 15 15 15 15 15 15 15 15 15 14 14 15 14 14 14 15 14
14 14 14 15 15 15 15 15 15 15 15 15 15 15 15 15 15 15 15 15 15 15 15 15 15 15 15 15 15 15 15 15 15 15 14 14 14 14 14 14 14 14 14
14 14 14 14 14 14 14 14 15 15 15 15 15 15 15 15 15 15 15 15 15 15 15 15 15 14 14 14 15 15 15 15 15 14 14 14 14 14 14 14 14 14 14
13 14 14 14 14 14 14 14 14 15 15 15 15 15 15 15 15 15 15 15 15 15 15 15 14 14 14 14 14 14 14 14 14 14 14 14 14 14 14 14 14 14 14
13 13 13 13 14 14 14 14 14 14 14 14 14 14 14 14 14 14 15 15 15 15 14 14 14 14 14 14 14 14 14 14 14 14 14 14 14 14 14 14 14 13 13
13 13 13 13 13 13 13 14 14 14 14 14 14 14 14 14 14 14 14 14 14 14 14 14 14 14 14 14 14 14 14 14 14 14 14 13 13 13 13 13 13 13 13
12 13 13 13 13 13 13 13 13 14 14 14 14 14 14 14 14 14 14 14 14 14 14 14 14 14 14 14 14 14 13 13 13 13 13 13 13 13 13 13 13 13 13
12 12 12 12 13 13 13 13 13 13 13 14 14 13 14 14 14 14 14 14 14 14 14 14 14 14 14 14 14 13 13 13 13 13 13 13 13 13 13 13 13 13 13
12 12 12 12 12 13 13 13 13 13 13 13 13 13 13 13 13 14 14 13 13 13 14 14 14 14 14 13 13 13 13 13 13 13 13 13 13 13 13 12 13 12 12
12 12 12 12 12 12 12 13 13 13 13 13 13 13 13 13 13 13 13 13 13 13 13 13 13 13 13 13 13 13 13 13 13 13 13 13 12 12 12 12 12 12 12
12 12 12 12 12 12 12 12 12 13 13 13 13 13 13 13 13 13 13 13 13 13 13 13 13 13 13 13 13 13 13 13 13 13 13 12 12 12 12 12 12 12 12
11 11 11 12 12 12 12 12 12 12 12 12 12 12 13 13 13 12 13 13 13 13 13 13 13 13 13 13 13 13 13 13 13 12 12 12 12 12 12 12 12 12 12
11 11 11 11 12 12 12 12 12 12 12 12 12 12 12 12 12 12 12 12 12 12 12 12 12 13 13 13 13 13 13 12 12 12 12 12 12 12 11 11 11 11 11
11 11 11 11 11 11 11 11 12 11 12 12 12 12 12 12 12 12 12 12 12 12 12 12 12 12 12 12 12 12 12 12 12 12 12 11 11 11 11 11 11 11 11
10 11 11 11 11 11 11 11 11 11 11 12 11 12 12 11 11 12 12 11 12 12 12 12 12 12 12 12 12 12 12 12 12 11 11 11 11 11 11 11 10 10 10
10 10 11 11 11 11 11 11 11 11 11 11 11 11 11 11 11 11 11 11 11 11 11 11 11 11 12 12 11 11 11 11 11 11 11 11 11 10 10 10 10 10 10
10 10 10 11 10 11 11 11 11 11 11 10 11 11 11 11 11 11 11 11 11 11 11 11 11 11 11 11 11 11 11 10 10 10 10 10 10 10 10 10 10 10 10
10 10 10 10 10 10 10 11 11 10 10 10 10 10 10 10 10 11 10 10 10 11 11 11 11 11 11 11 10 10 10 10 10 10 10 10 10 10 10 10 10 10 9
10 10 10 10 10 10 10 10 10 10 10 10 10 10 10 10 10 10 10 10 10 10 10 10 10 10 10 10 10 10 10 10 10 9 9 10 10 10 10 9 9 9 9
9 9 9 10 10 10 10 10 10 10 9 9 10 9 9 9 9 10 10 10 10 9 9 9 10 10 10 10 9 9 9 9 9 9 9 9 9 10 9 9 9 9 9
Wind_Speed
2 4 8 9 10 10 9 9 10 10 10 11 12 12 12 12 12 12 12 12 11 11 11 12 11 11 11 11 11 11 12 11 11 11 11 11 11 11 11 11 11 11 12
5 7 9 10 10 10 10 10 10 10 10 10 11 11 12 12 12 12 12 11 11 11 11 11 11 11 11 11 11 11 11 11 10 11 10 10 9 10 10 9 9 9 10
4 7 9 10 10 10 10 10 10 9 10 10 10 11 11 11 11 11 11 11 11 10 11 10 11 11 11 10 10 10 10 10 10 10 9 8 8 8 9 8 9 9 9
5 6 8 10 10 10 10 10 10 9 9 10 10 10 10 10 10 10 11 10 10 10 10 10 10 10 10 10 9 9 9 9 9 8 7 6 6 7 7 7 7 8 8
4 5 7 8 10 10 10 9 9 10 9 9 9 10 10 10 10 10 10 10 9 10 10 10 10 9 9 9 8 8 8 8 8 7 6 5 5 6 6 6 6 6 7
3 5 7 8 8 9 9 10 9 9 9 9 9 9 9 9 9 9 9 9 9 9 9 9 9 9 9 8 8 8 7 7 7 6 5 5 4 4 5 5 5 5 6
4 5 7 8 8 7 8 9 10 9 9 9 9 9 9 9 9 9 9 9 9 9 9 9 9 8 8 8 7 7 7 7 6 5 4 3 3 3 4 4 4 4 4
5 4 7 8 8 7 8 8 9 9 9 9 9 9 9 9 9 9 9 9 8 8 8 8 8 8 7 7 7 7 7 6 5 4 3 2 2 2 3 2 2 3 3
4 4 4 6 6 7 7 7 8 9 9 8 8 9 9 9 8 9 8 8 8 8 7 8 7 7 6 6 6 6 6 6 5 3 2 2 1 2 2 2 2 2 1
3 3 3 4 5 5 5 7 7 8 8 8 8 8 8 8 8 8 8 7 7 7 7 7 7 6 6 6 6 6 6 5 4 3 2 2 2 2 2 2 1 0 1
3 3 3 3 3 4 4 5 6 7 8 7 8 8 8 7 7 7 7 7 7 7 6 6 7 6 6 6 5 6 5 4 3 2 1 2 2 2 2 1 1 1 1
5 4 3 3 3 4 4 4 5 5 6 7 7 8 7 6 6 6 7 7 7 6 6 6 6 6 5 5 5 5 4 3 3 2 2 2 2 2 1 1 0 1 1
5 4 4 4 3 4 3 4 4 4 5 6 7 8 7 6 6 6 5 5 6 6 5 4 5 4 4 4 4 3 3 3 2 2 2 2 2 2 1 1 1 0 0
4 4 3 4 4 3 4 3 4 4 4 4 5 7 7 5 4 4 4 4 4 4 4 3 3 3 4 4 4 3 3 2 2 2 2 2 2 2 2 1 1 0 1
3 3 3 3 4 3 3 3 4 4 4 5 6 6 7 5 4 4 3 3 3 4 3 3 2 3 2 2 2 3 2 2 2 2 2 2 2 2 2 1 1 1 1
3 3 3 3 4 4 3 3 3 4 4 5 5 6 7 6 5 4 4 3 3 3 3 3 2 3 2 2 1 2 2 2 2 2 2 2 2 2 2 2 2 2 2
4 3 3 3 3 4 3 3 3 4 5 4 4 6 7 7 6 5 4 3 3 4 4 3 2 2 2 1 1 1 1 2 2 2 2 1 1 1 2 2 2 2 3
4 4 3 3 4 4 3 3 3 4 4 4 4 5 6 7 7 6 4 3 4 4 3 2 2 1 2 1 1 1 1 1 1 2 2 1 1 0 1 1 2 2 3
4 4 3 3 4 4 4 3 3 3 3 3 4 4 5 6 7 6 4 3 4 3 2 2 2 2 2 1 1 1 1 1 1 1 1 1 1 1 0 2 2 3 3
2 3 3 2 3 4 3 3 3 2 2 2 3 4 5 5 6 5 4 4 4 3 3 2 2 1 2 2 1 1 1 1 1 1 0 1 1 1 1 2 2 3 3
1 3 4 3 2 3 3 3 3 2 2 1 1 3 4 4 5 5 3 3 3 3 4 3 2 2 1 2 2 2 2 2 1 1 1 1 2 2 2 2 2 3 3
1 2 3 3 2 3 2 2 2 2 1 1 1 2 3 3 4 5 4 3 3 3 3 3 3 2 1 2 2 2 1 2 2 1 1 1 1 1 2 2 2 2 3
0 1 2 3 3 3 3 3 3 3 2 1 1 1 1 2 3 4 5 4 3 4 3 4 4 4 3 1 2 3 3 2 1 1 1 1 1 0 1 2 2 2 2
1 1 1 3 3 3 4 4 4 3 2 2 1 1 0 2 3 3 3 4 4 3 4 4 4 3 4 3 1 1 2 3 2 1 2 1 1 1 1 2 2 3 2
1 1 2 3 3 4 4 4 4 2 1 1 1 1 1 1 2 2 3 3 3 3 3 4 4 4 4 4 3 2 2 2 1 2 2 2 2 1 1 1 1 2 2
2 2 2 3 3 3 4 3 4 3 2 2 2 1 0 0 0 1 2 2 2 3 4 4 4 5 4 4 3 3 3 2 2 2 2 2 2 2 1 1 1 1 2
Wind_Direction
198 191 173 157 150 143 136 132 130 126 123 123 127 129 127 127 128 129 127 124 121 118 115 112 110 111 109 108 105 104 105 103 99 95 91 89 90 92 90 86 85 83 88
183 183 168 159 155 150 143 135 132 130 127 126 129 133 132 132 132 133 131 129 126 124 122 119 115 111 107 105 103 103 103 103 100 96 93 90 90 94 93 90 89 90 90
156 168 164 158 155 151 147 141 135 136 136 133 131 133 136 136 136 134 135 134 130 127 125 123 118 115 111 107 105 104 101 101 101 99 97 95 96 97 95 93 92 93 95
146 153 157 156 155 153 148 146 145 143 143 142 138 136 139 140 139 136 136 137 134 131 127 123 120 117 115 113 110 107 106 102 96 97 96 94 99 99 99 98 96 95 98
137 147 150 146 155 155 153 150 150 151 149 150 148 145 144 144 144 143 139 139 136 132 130 127 124 122 119 117 115 112 110 108 97 92 95 98 104 103 102 107 103 99 103
150 152 152 145 152 156 159 157 155 157 159 156 155 152 148 146 146 146 142 139 137 135 134 132 129 127 123 121 118 116 114 108 100 93 94 103 108 110 104 108 114 109 108
161 158 153 147 151 160 165 164 162 161 163 162 156 155 151 148 143 144 144 140 137 137 139 138 135 134 130 127 123 118 112 103 107 100 97 104 118 115 109 106 118 124 114
159 158 157 152 150 161 171 169 165 165 166 163 162 156 155 152 148 143 144 144 143 141 143 143 141 140 139 137 130 122 117 110 111 110 111 117 132 120 115 113 113 128 131
154 149 152 157 154 156 172 170 168 166 166 164 163 162 157 156 152 148 143 146 149 147 146 148 147 144 141 138 130 125 120 114 112 113 124 141 160 146 123 118 123 135 143
151 154 160 157 156 157 171 173 169 168 166 167 166 161 157 154 153 149 143 144 148 150 148 150 150 150 143 137 132 127 121 116 114 119 134 181 182 159 137 128 136 158 219
179 185 179 168 163 166 173 175 168 171 167 164 160 159 154 149 147 147 142 142 143 146 148 149 151 147 140 137 132 128 118 115 127 134 172 195 193 184 168 161 193 245 272
193 199 185 181 173 166 172 166 165 167 161 157 155 155 148 146 147 147 144 141 139 138 143 145 149 142 127 120 123 121 108 120 128 154 194 195 194 199 193 172 225 289 288
197 192 194 189 182 172 164 162 155 153 150 149 153 152 145 136 132 132 133 136 134 133 126 132 131 122 116 116 116 115 121 130 147 177 211 211 217 211 178 146 175 307 343
189 198 196 188 181 176 167 167 161 152 153 151 156 155 146 135 130 130 125 129 130 129 117 110 115 118 113 120 129 129 136 148 167 188 206 209 212 203 195 177 179 193 308
191 203 200 190 186 179 165 171 160 160 166 164 160 162 157 146 150 139 133 132 130 129 123 116 124 125 114 112 130 145 152 161 167 181 205 213 212 215 218 235 238 252 280
201 211 210 198 186 173 176 176 170 162 166 160 163 167 163 154 151 148 147 143 136 137 136 136 137 145 138 133 136 144 153 155 163 169 191 205 223 230 243 266 276 270 280
198 204 214 203 179 170 170 170 164 162 163 159 164 170 166 158 155 151 156 160 154 143 128 119 109 124 134 142 152 148 151 158 164 166 173 186 208 252 266 283 299 303 306
190 192 204 204 182 174 169 159 154 156 156 158 161 164 167 161 160 153 159 169 157 139 127 142 147 141 143 151 169 185 168 165 166 171 157 156 169 229 281 298 305 304 304
196 185 184 187 178 171 158 143 138 142 148 153 155 161 171 169 165 158 163 163 152 141 145 163 150 157 162 168 182 146 107 137 159 144 133 133 133 127 345 329 332 320 313
178 168 162 160 154 150 144 128 123 122 129 127 149 156 161 164 166 155 152 151 151 154 159 160 155 156 152 156 141 83 55 41 91 109 135 106 90 69 35 4 3 350 345
106 139 144 146 138 136 140 144 144 162 162 152 172 157 154 159 161 149 149 150 151 168 173 164 154 149 126 119 94 50 24 34 63 64 66 89 63 58 53 32 29 14 358
114 138 137 146 143 140 149 145 143 142 143 173 170 123 128 153 161 155 153 164 161 159 162 163 149 145 136 117 118 114 38 354 348 10 25 91 58 64 55 35 31 8 354
135 172 160 151 147 138 121 109 96 89 82 96 96 101 94 168 160 153 159 162 170 167 171 175 166 152 164 158 129 132 142 211 281 324 344 5 7 55 23 26 21 353 355
208 173 141 136 130 125 124 124 121 130 154 183 170 178 209 159 144 149 156 167 176 180 178 181 174 161 156 164 146 95 127 150 157 283 304 322 349 5 341 2 2 357 5
157 132 129 122 122 120 120 127 130 125 129 105 101 139 201 145 144 152 161 170 186 191 192 182 167 167 167 166 164 154 108 81 112 165 244 292 329 319 326 331 353 4 11
104 107 110 115 114 123 127 125 128 134 122 102 96 119 43 35 25 171 177 185 193 197 200 191 183 177 179 172 171 170 165 161 174 171 210 229 267 291 319 326 352 12 24
Height
1509 1511 1513 1514 1516 1517 1519 1520 1521 1523 1524 1525 1526 1527 1529 1530 1531 1532 1534 1535 1536 1537 1539 1540 1540 1541 1542 1543 1544 1544 1545 1546 1546 1547 1547 1548 1548 1549 1549 1550 1550 1551 1551
1508 1510 1512 1514 1515 1517 1518 1520 1521 1523 1524 1525 1526 1527 1529 1530 1531 1532 1534 1535 1536 1538 1539 1540 1541 1542 1543 1543 1544 1545 1546 1546 1547 1548 1548 1549 1550 1550 1550 1551 1551 1552 1552
1507 1509 1511 1513 1515 1516 1518 1520 1521 1522 1524 1525 1526 1527 1528 1530 1531 1532 1534 1535 1536 1537 1539 1540 1541 1542 1543 1544 1545 1545 1546 1547 1548 1548 1549 1550 1550 1551 1551 1552 1552 1553 1553
1507 1509 1510 1512 1514 1516 1517 1519 1520 1522 1523 1525 1526 1527 1528 1530 1531 1532 1534 1535 1536 1537 1538 1540 1541 1542 1543 1544 1545 1546 1546 1547 1548 1549 1550 1550 1551 1552 1552 1553 1553 1554 1554
1507 1508 1510 1511 1513 1515 1516 1518 1519 1521 1522 1524 1525 1527 1528 1529 1531 1532 1533 1535 1536 1537 1538 1539 1540 1542 1543 1544 1545 1546 1546 1547 1548 1549 1550 1551 1552 1552 1553 1553 1554 1554 1554
1506 1507 1509 1510 1512 1514 1515 1517 1518 1520 1522 1523 1525 1526 1528 1529 1530 1532 1533 1534 1536 1537 1538 1539 1540 1541 1542 1543 1544 1545 1546 1547 1549 1549 1550 1551 1552 1552 1553 1554 1554 1554 1555
1504 1506 1507 1509 1511 1512 1514 1515 1517 1519 1520 1522 1524 1525 1527 1528 1530 1531 1532 1534 1535 1536 1537 1539 1540 1541 1542 1543 1544 1545 1546 1547 1548 1549 1550 1551 1552 1552 1553 1553 1554 1554 1554
1503 1505 1506 1508 1509 1510 1512 1514 1515 1517 1519 1520 1522 1524 1526 1527 1529 1530 1532 1533 1534 1536 1537 1538 1539 1541 1542 1543 1544 1545 1546 1547 1548 1549 1550 1551 1551 1552 1553 1553 1553 1554 1554
1502 1503 1504 1506 1508 1509 1510 1512 1514 1515 1517 1519 1520 1522 1524 1526 1528 1529 1531 1532 1534 1535 1536 1538 1539 1540 1541 1542 1543 1544 1545 1546 1547 1548 1549 1550 1551 1551 1552 1552 1553 1553 1553
1500 1501 1502 1504 1506 1507 1508 1510 1512 1514 1516 1517 1519 1521 1523 1525 1527 1528 1530 1532 1533 1534 1536 1537 1538 1540 1541 1542 1543 1544 1545 1546 1547 1548 1549 1549 1550 1550 1551 1551 1552 1552 1552
1497 1498 1499 1501 1503 1505 1506 1508 1510 1512 1514 1516 1518 1520 1521 1523 1525 1527 1529 1530 1532 1533 1535 1536 1538 1539 1540 1541 1542 1543 1544 1545 1546 1547 1548 1549 1549 1549 1550 1550 1551 1551 1551
1493 1495 1496 1499 1501 1503 1504 1506 1508 1510 1512 1514 1516 1518 1520 1522 1524 1526 1527 1529 1531 1532 1534 1535 1536 1538 1539 1540 1541 1542 1543 1544 1545 1546 1547 1548 1548 1548 1549 1549 1549 1549 1549
1490 1491 1493 1496 1498 1500 1502 1504 1506 1507 1509 1511 1514 1516 1518 1520 1522 1524 1526 1527 1529 1531 1532 1534 1535 1536 1538 1539 1540 1541 1542 1543 1544 1545 1546 1546 1547 1547 1548 1548 1548 1548 1548
1487 1489 1491 1493 1495 1497 1499 1501 1503 1504 1507 1509 1511 1514 1516 1518 1519 1522 1524 1525 1527 1529 1530 1532 1533 1534 1536 1537 1538 1539 1540 1541 1542 1543 1544 1545 1545 1546 1546 1546 1546 1546 1546
1484 1486 1489 1491 1493 1495 1496 1498 1500 1502 1504 1507 1509 1511 1514 1515 1518 1520 1522 1524 1525 1527 1528 1530 1532 1533 1534 1535 1537 1538 1539 1540 1541 1542 1542 1543 1544 1544 1544 1545 1545 1544 1544
1482 1484 1486 1488 1490 1492 1494 1496 1498 1500 1502 1504 1507 1509 1511 1513 1516 1518 1520 1522 1523 1525 1526 1528 1530 1531 1532 1534 1535 1536 1537 1538 1539 1540 1541 1541 1542 1542 1543 1543 1543 1543 1543
1481 1483 1485 1487 1488 1489 1492 1493 1495 1498 1500 1502 1504 1507 1509 1511 1513 1516 1517 1519 1521 1523 1524 1526 1528 1529 1530 1531 1533 1534 1535 1536 1537 1538 1539 1539 1540 1540 1541 1541 1540 1540 1540
1480 1481 1483 1484 1486 1488 1489 1491 1493 1496 1498 1500 1502 1505 1507 1509 1511 1513 1515 1517 1519 1520 1522 1524 1525 1526 1527 1529 1530 1532 1533 1534 1535 1536 1537 1537 1538 1538 1539 1538 1538 1538 1538
1478 1478 1480 1482 1484 1486 1488 1490 1491 1494 1496 1498 1500 1502 1504 1507 1509 1510 1512 1514 1516 1518 1520 1521 1523 1524 1525 1527 1528 1529 1531 1532 1533 1534 1534 1535 1535 1536 1536 1536 1536 1536 1536
1475 1476 1478 1480 1482 1484 1486 1488 1490 1492 1494 1496 1498 1500 1502 1504 1506 1508 1510 1511 1513 1515 1517 1518 1520 1521 1522 1524 1526 1527 1528 1530 1530 1531 1532 1532 1533 1533 1533 1533 1533 1533 1533
1473 1474 1476 1478 1480 1482 1484 1485 1487 1489 1491 1493 1495 1497 1499 1502 1504 1505 1507 1509 1510 1512 1514 1515 1517 1519 1520 1522 1523 1525 1526 1527 1528 1529 1529 1530 1530 1531 1531 1531 1531 1531 1531
1471 1472 1474 1476 1478 1480 1483 1484 1485 1487 1490 1491 1493 1494 1496 1499 1501 1503 1504 1506 1508 1509 1511 1512 1514 1516 1517 1518 1520 1522 1523 1526 1525 1526 1527 1527 1528 1528 1528 1528 1528 1528 1528
1469 1471 1472 1475 1476 1479 1481 1483 1484 1486 1488 1489 1491 1492 1494 1496 1498 1500 1501 1503 1505 1506 1507 1509 1511 1512 1514 1515 1517 1519 1520 1521 1522 1523 1524 1525 1525 1526 1526 1526 1526 1526 1525
1469 1470 1472 1473 1475 1477 1479 1481 1482 1484 1485 1487 1489 1490 1492 1494 1496 1498 1499 1501 1502 1504 1505 1506 1507 1509 1510 1512 1514 1516 1518 1518 1519 1520 1521 1522 1522 1523 1523 1523 1523 1523 1522
1468 1469 1471 1472 1474 1476 1478 1480 1481 1483 1484 1486 1487 1488 1490 1492 1493 1495 1496 1498 1500 1501 1502 1503 1504 1506 1507 1509 1510 1512 1514 1515 1516 1517 1517 1518 1519 1519 1520 1520 1520 1520 1519
1467 1469 1470 1471 1472 1474 1476 1478 1479 1481 1482 1484 1484 1486 1487 1489 1491 1493 1494 1495 1497 1498 1499 1500 1502 1503 1504 1506 1508 1509 1510 1511 1513 1514 1514 1514 1514 1516 1517 1517 1517 1517 1516